Regional Weather Roundup
Issued by NWS

Home | Current Version | Previous Version | Text Only | Print | Product List | Glossary On
Versions: 1 2 3 4 5 6 7 8 9 10 11 12 13 14 15 16 17 18 19 20 21 22 23 24 25 26 27 28 29 30 31 32 33 34 35 36 37 38 39 40 41 42 43 44 45 46 47 48 49 50
000
ASUS45 KSLC 191410
RWRUT

UTAH REGIONAL WEATHER ROUNDUP
NATIONAL WEATHER SERVICE SALT LAKE CITY UT
700 AM MST SUN FEB 19 2017

UTZ001>011-023>025-191500-

NORTHERN UTAH

CITY           SKY/WX    TMP DP  RH WIND       PRES   REMARKS
BRIGHAM CITY     N/A     42  39  89 E5        29.65S
HILL AFB       RAIN      40  39  96 CALM      29.66R FOG
LOGAN          LGT RAIN  41  36  82 SE17      29.63S
OGDEN          LGT RAIN  40  40 100 SE7       29.65R FOG
SALT LAKE CITY LGT RAIN  44  41  89 N10       29.64R
TOOELE VALLEY  LGT RAIN  45  41  87 S10       29.65S
WENDOVER       PTCLDY    36  30  80 NE3       29.62S
HEBER CITY     MOCLDY    39  32  75 CALM      29.64F
WEST JORDAN    CLOUDY    47  45  95 S8        29.65S

$$

UTZ011>015-024>027-191500-

CENTRAL/NORTHEAST UTAH

CITY           SKY/WX    TMP DP  RH WIND       PRES   REMARKS
PROVO AIRPORT  CLOUDY    44  38  79 CALM      29.67R
MOAB/CANYONLAN FOG       38  38 100 NE7       29.69F VSB 1/2 WCI  33
DELTA          CLOUDY    43  36  75 S8        29.67S
PRICE          CLOUDY    35  35 100 N3        29.70F
RICHFIELD      MOCLDY    36  34  93 CALM      29.70R
ROOSEVELT      CLOUDY    36  34  93 CALM      29.74F
VERNAL         LGT RAIN  34  33  96 NW3       29.72S

$$

UTZ013>016-019>022-027-191500-

SOUTHERN UTAH

CITY           SKY/WX    TMP DP  RH WIND       PRES   REMARKS
BRYCE CANYON   FOG       33  32  96 S6        29.73R VSB 1/4 WCI  28
CEDAR CITY     CLOUDY    38  36  92 S9        29.69S WCI  31
MILFORD        CLOUDY    42  37  82 S14G23    29.67F
ST GEORGE      LGT RAIN  47  46  97 S6        29.74R
HANKSVILLE     CLOUDY    37  37 100 CALM      29.72S
KANAB          CLOUDY    41  39  93 SW5       29.79R
BLANDING       CLOUDY    38  37  99 S12       29.83R WCI  30

$$

REGIONAL REPORTS     COLORADO/ARIZONA

CITY           SKY/WX    TMP DP  RH WIND       PRES   REMARKS
CRAIG, CO      CLOUDY    29  25  85 CALM      29.73F
GRAND JUNCTION CLOUDY    37  35  92 CALM      29.71R
RIFLE, CO      CLOUDY    29  28  96 VRB3      29.74S
MONTROSE, CO   CLOUDY    31  29  92 SE7       29.76R WCI  24
CORTEZ, CO     CLOUDY    41  35  79 SE6       29.78R
COLORADO CITY  DRIZZLE   43  39  87 SW5       29.78R
PAGE, AZ       LGT RAIN  43  35  73 S6        29.73R
GRAND CANYON   LGT SNOW  32  32 100 S8        29.79R FOG     WCI  25
KINGMAN, AZ    CLOUDY    39  37  92 CALM      29.79R
FLAGSTAFF, AZ  LGT SNOW  29  28  96 SW7       29.80R FOG     WCI  22

$$

REGIONAL REPORTS    NEVADA/IDAHO/WYOMING

CITY           SKY/WX    TMP DP  RH WIND       PRES   REMARKS
LAS VEGAS, NV  PTCLDY    49  43  80 S5        29.72R
ELY, NY        LGT RAIN  34  32  92 S7        29.68R WCI  28
ELKO, NV       PTCLDY    34  31  88 W5        29.64R WCI  30
POCATELLO, ID  CLOUDY    37  34  89 CALM      29.60S
BURLEY, ID     LGT RAIN  41  35  79 SW12      29.61R
FORT BRIDGER,    N/A     32  30  93 SW5       29.66F WCI  27
EVANSTON, WY   CLOUDY    34  28  79 SW13      29.64S WCI  25
ROCK SPRINGS,  CLOUDY    39  29  67 S21G29    29.64S WCI  29
KEMMERER, WY     N/A     32  30  93 SW7       29.65S WCI  26

$$



USA.gov is the U.S. government's official web portal to all federal, state and local government web resources and services.